Location: Chèvreville
(49.1099°N, 2.8495°E)
Time: 08:20:28
(UTC+00:00)

Cosmos 1844 - Pass Details

Date: 28 January 2023
Orbit: 822 x 868 km, 70.9° (Epoch: 25 March)

Event Time Altitude Azimuth Distance (km) Brightness Sun altitude
Rises 19:19:22 0° 332° (NNW) 3,464 7.3 -26.2°
Reaches altitude 10° 19:21:51 10° 334° (NNW) 2,524 6.5 -26.6°
Enters shadow 19:27:16 71° 22° (NNE) 918 3.7 -27.5°
